GLOO2: Glover Creek, Glover, OK

Data processed at Mon Apr 24 2017 20:40


All information presented herein is the property of the government of the United States of America and may be revised or deleted at any time without prior notice.
Dissemination of this information without the expressed written consent of the Public Affairs Office, Tulsa District U.S. Army Corps of Engineers is strictly prohibited.
These data are gathered electronically and, as presented, have not undergone any form of quality control. These data are not guaranteed to be valid or correct.
Go to home page.
Go to station list.
Go to station map.

Downstream station:


Previous Day
Next Day
Current Day
    
SHEF ID:       GLOO2     Glover River near Glover, OK
STATION TYPE:  

               PRECIP     STAGE  RIV-FLOW  BAT-LOAD
                   in        ft       cfs      volt
              Ccp-Rev   Ccp-Rev   Ccp-Rev   Ccp-Rev
(US/Central)
04/24 00:00      0.00      4.93       621     12.77
04/24 01:00      0.00      4.91       608     12.71
04/24 02:00      0.00      4.89       589     12.65
04/24 03:00      0.00      4.87       577     12.65
04/24 04:00      0.00      4.86       571     12.65
04/24 05:00      0.00      4.85       564     12.60
04/24 06:00      0.00      4.83       546     12.60
04/24 07:00      0.00      4.82       540     12.54
04/24 08:00      0.00      4.80       529     12.71
04/24 09:00      0.00      4.80       529     13.24
04/24 10:00      0.00      4.79       523     13.65
04/24 11:00      0.00      4.77       506     13.65
04/24 12:00      0.00      4.76       500     13.59
04/24 13:00      0.00      4.74       489     13.48
04/24 14:00      0.00      4.73       483     13.36
04/24 15:00      0.00      4.73       483     13.30
04/24 16:00      0.00      4.71       473     13.18
04/24 17:00      0.00      4.70       462     13.12
04/24 18:00      0.00      4.69       457     13.24
04/24 19:00      0.00      4.68       451     13.18
04/24 20:00      0.00      4.66       441     12.95
04/24 21:00      ----      ----      ----      ----
04/24 22:00      ----      ----      ----      ----
04/24 23:00      ----      ----      ----      ----